Orbital Elements at Epoch 2459200.5 (2020-Dec-17.0) TDB
Reference: JPL 13 (heliocentric ecliptic J2000)
Element | Value | Uncertainty (1-sigma) | Units |
e | .1055310274761973 | 6.6937e-08 | |
a | 3.046477482641082 | 3.0109e-08 | au |
q | 2.72497958371487 | 2.1365e-07 | au |
i | 5.957843451488158 | 6.2197e-06 | deg |
node | 159.9680444643632 | 5.7299e-05 | deg |
peri | 33.26281607641565 | 6.3173e-05 | deg |
M | 242.8948827982119 | 2.9589e-05 | deg |
tp | 2459832.284196020115 (2022-Sep-09.78419602) | 0.00016568 | TDB |
period | 1942.206421050988 5.32 | 2.8793e-05 7.883e-08 | d yr |
n | .1853561990620919 | 2.7479e-09 | deg/d |
Q | 3.367975381567295 | 3.3287e-08 | au |
|
| | Orbit Determination Parameters
Additional Information
|